This is the latest recevied weather packets stored in our database for station/object NK7I. If no packets are shown the sender has not sent any weather packets the latest 10 day(s).
| Time | Temp. | Humidity | Pressure | Rain* | Wind** | Luminosity | Snow |
|---|---|---|---|---|---|---|---|
| 1777774882 | 21.67° C | 41% | 1012 hPa | 0 mm | - | 32 W/m² | - |
| 1777774582 | 21.67° C | 40% | 1012 hPa | 0 mm | - | 33 W/m² | - |
| 1777774282 | 22.22° C | 39% | 1012 hPa | 0 mm | - | 40 W/m² | - |
| 1777773982 | 22.22° C | 39% | 1012 hPa | 0 mm | - | 49 W/m² | - |
| 1777773682 | 22.22° C | 39% | 1012 hPa | 0 mm | - | 47 W/m² | - |
| 1777773382 | 22.78° C | 39% | 1012.1 hPa | 0 mm | - | 56 W/m² | - |
| 1777773082 | 22.78° C | 38% | 1012 hPa | 0 mm | - | 79 W/m² | - |
| 1777772782 | 22.78° C | 37% | 1012 hPa | 0 mm | - | 83 W/m² | - |
| 1777772482 | 22.78° C | 36% | 1012 hPa | 0 mm | - | 53 W/m² | - |
| 1777772182 | 22.78° C | 36% | 1012 hPa | 0 mm | - | 76 W/m² | - |
| 1777771882 | 23.33° C | 37% | 1012.1 hPa | 0 mm | - | 155 W/m² | - |
| 1777771582 | 23.33° C | 35% | 1012 hPa | 0 mm | - | 151 W/m² | - |
| 1777771283 | 23.33° C | 40% | 1011.9 hPa | 0 mm | - | 192 W/m² | - |
| 1777770982 | 23.33° C | 39% | 1012 hPa | 0 mm | - | 165 W/m² | - |
| 1777770682 | 23.33° C | 38% | 1012.1 hPa | 0 mm | - | 72 W/m² | - |
| 1777770382 | 23.33° C | 39% | 1012.1 hPa | 0 mm | - | 70 W/m² | - |
| 1777770083 | 23.33° C | 33% | 1012.1 hPa | 0 mm | - | 299 W/m² | - |
| 1777769782 | 23.33° C | 36% | 1012.3 hPa | 0 mm | - | 357 W/m² | - |
| 1777769482 | 23.33° C | 35% | 1012.4 hPa | 0 mm | - | 376 W/m² | - |
| 1777769182 | 23.33° C | 35% | 1012.4 hPa | 0 mm | - | 403 W/m² | - |
| 1777768887 | 23.33° C | 34% | 1012.4 hPa | 0 mm | - | 432 W/m² | - |
| 1777768882 | 23.33° C | 37% | 1012.4 hPa | 0 mm | - | 432 W/m² | - |
| 1777768582 | 22.78° C | 39% | 1012.4 hPa | 0 mm | - | 464 W/m² | - |
| 1777768283 | 22.78° C | 39% | 1012.4 hPa | 0 mm | - | 501 W/m² | - |
| 1777767982 | 22.78° C | 39% | 1012.4 hPa | 0 mm | - | 487 W/m² | - |
* Rain latest hour (hover to see other rain measurements)
** Current wind speed in m/s (hover to see current wind gust speed)